This demonstration page uses our WeatherBlox Daily Observations layout. Learn more.

Left ArrowRight Arrow

38.88101, -77.10428

Hourly Observations for May 24, 2021

Temp ( °F °C ) Dew Point ( °F °C ) Humidity (%) Winds ( mph kmh ) Pressure ( in mb ) Visibility ( mi km ) Precip ( " mm )
12:52 am 00:52 Cloudy 80 26.7 63 17.2 56 56 N 7 11 30.04 1017 10 16 N/A
1:52 am 01:52 Cloudy 79 26.1 63 17.2 58 58 NNW 10 17 30.05 1018 10 16 N/A
2:52 am 02:52 Mostly Cloudy 79 26.1 63 17.2 58 58 NNE 10 17 30.06 1018 10 16 N/A
3:52 am 03:52 Cloudy 79 26.1 63 17.2 58 58 NE 12 19 30.07 1018 10 16 N/A
4:52 am 04:52 Cloudy 78 25.6 63 17.2 60 60 NNE 14 22 30.09 1019 10 16 N/A
5:52 am 05:52 Cloudy 76 24.4 60 15.6 58 58 NNE 14 22 30.12 1020 10 16 N/A
6:26 am 06:26 Cloudy with Light Rain 73 22.8 63 17.2 71 71 E 15 24 30.14 1021 10 16 0.00 0.00
6:46 am 06:46 Cloudy with Light Rain 72 22 63 17 73 73 E 16 26 30.17 1022 4 6 0.00 0.00
6:52 am 06:52 Cloudy with Light Rain 70 21.1 62 16.7 76 76 E 16 26 30.17 1022 4 6 0.03 0.76
7:52 am 07:52 Cloudy with Light Rain 65 18.3 58 14.4 78 78 E 12 19 30.21 1023 10 16 0.09 2.29
8:52 am 08:52 Cloudy 66 18.9 57 13.9 73 73 E 5 7 30.23 1024 10 16 0.00 0.00
9:52 am 09:52 Cloudy 67 19.4 55 12.8 66 66 E 7 11 30.24 1024 10 16 N/A
10:52 am 10:52 Cloudy 67 19.4 55 12.8 66 66 ESE 10 17 30.25 1024 10 16 N/A
11:52 am 11:52 Cloudy 68 20 55 12.8 63 63 ESE 14 22 30.26 1025 10 16 N/A
12:52 pm 12:52 Cloudy 68 20 54 12.2 61 61 ESE 10 17 30.26 1025 10 16 N/A
1:52 pm 13:52 Cloudy with Light Rain 66 18.9 52 11.1 61 61 ESE 12 19 30.26 1025 10 16 0.00 0.00
2:52 pm 14:52 Cloudy with Light Rain 64 17.8 54 12.2 70 70 ESE 9 15 30.27 1025 10 16 0.02 0.51
3:52 pm 15:52 Cloudy with Rain 63 17.2 54 12.2 73 73 ESE 10 17 30.26 1025 6 10 0.01 0.25
4:52 pm 16:52 Cloudy with Rain 62 16.7 55 12.8 78 78 ESE 8 13 30.25 1024 3 5 0.05 1.27
4:55 pm 16:55 Cloudy with Heavy Rain 62 16.7 55 12.8 78 78 ESE 8 13 30.25 1024 3 4 0.01 0.25
4:58 pm 16:58 Cloudy with Rain 62 16.7 56 13.3 80 80 SE 7 11 30.25 1024 3 5 0.02 0.51
5:39 pm 17:39 Cloudy with Rain 62 16.7 55 12.8 78 78 E 7 11 30.26 1025 3 4 0.07 1.78
5:44 pm 17:44 Cloudy with Heavy Rain 61 16.1 56 13.3 84 84 ESE 8 13 30.26 1025 2 3 0.09 2.29
5:52 pm 17:52 Cloudy with Rain 61 16.1 56 13.3 84 84 ESE 9 15 30.25 1024 2 3 0.12 3.05
6:01 pm 18:01 Cloudy with Light Rain 61 16.1 56 13.3 84 84 ESE 9 15 30.25 1024 3 5 0.01 0.25
6:52 pm 18:52 Cloudy 61 16.1 55 12.8 81 81 ESE 8 13 30.25 1024 10 16 0.01 0.25
7:52 pm 19:52 Cloudy 61 16.1 55 12.8 81 81 ENE 5 7 30.27 1025 10 16 N/A
8:52 pm 20:52 Cloudy 61 16.1 55 12.8 81 81 E 7 11 30.29 1026 10 16 0.01 0.25
9:16 pm 21:16 Cloudy 61 16.1 54 12.2 78 78 E 7 11 30.30 1026 10 16 N/A
9:52 pm 21:52 Cloudy 61 16.1 55 12.8 81 81 E 9 15 30.31 1026 10 16 N/A
10:23 pm 22:23 Cloudy 61 16.1 54 12.2 78 78 E 5 7 30.32 1027 10 16 N/A
10:25 pm 22:25 Cloudy 61 16.1 54 12.2 78 78 E 6 9 30.32 1027 10 16 N/A
10:46 pm 22:46 Cloudy 61 16 55 13 83 83 ENE 6 9 30.32 1027 10 16 N/A
10:52 pm 22:52 Cloudy 61 16.1 55 12.8 81 81 ENE 6 9 30.31 1027 10 16 N/A
11:52 pm 23:52 Cloudy 60 15.6 54 12.2 80 80 E 7 11 30.31 1026 10 16 0.00 0.00

Powered by AerisWeather